Orbital Elements at Epoch 2459200.5 (2020-Dec-17.0) TDB
Reference: JPL 12 (heliocentric ecliptic J2000)
Element | Value | Uncertainty (1-sigma) | Units |
e | .1936446650724369 | 5.0863e-08 | |
a | 2.634521780115481 | 1.4448e-08 | au |
q | 2.124360692378979 | 1.2786e-07 | au |
i | 13.81345136609738 | 4.7869e-06 | deg |
node | 174.4075546197529 | 1.9111e-05 | deg |
peri | 185.21796824 | 2.2852e-05 | deg |
M | 136.1727667532331 | 1.4248e-05 | deg |
tp | 2458609.702188857076 (2019-May-06.20218886) | 5.913e-05 | TDB |
period | 1561.89241859847 4.28 | 1.2849e-05 3.518e-08 | d yr |
n | .2304896263745477 | 1.8961e-09 | deg/d |
Q | 3.144682867851984 | 1.7246e-08 | au |
|
| | Orbit Determination Parameters
Additional Information
|